User: anonymous   Login
Location: Unspecified
(0.0000°N, 0.0000°E)
Time: 07:22:49
(UTC+00:00)
Language:

COSMOS 2508 - Orbit

View from above orbital plane
View from above orbital plane
View from above satellite
View from above satellite

Ground track
Ground track

The orbit is defined by the following mean orbital elements,

1 40921U          26107.01077522 +.00000000 +00000-0 +16551-2 0 00009
2 40921  82.4826 116.2911 0014680 152.0266 208.1606 12.42913027    04
Epoch (UTC): 17 April 2026 00:15:30
Eccentricity: 0.0014680
inclination: 82.4826°
perigee height: 1483 km
apogee height: 1506 km
right ascension of ascending node: 116.2911°
argument of perigee: 152.0266°
revolutions per day: 12.42913027
mean anomaly at epoch: 208.1606°

The dashed part of the orbit path shows where the satellite is in the earth's shadow,  

DLR